Change the Weather History Date:

Tuesday, August 6, 2013

  Actual Average (KLSE) Record (KLSE)
Temperature  
Mean Temperature 72 °F 73 °F  
Max Temperature 84 °F 83 °F 100 °F (2001)
Min Temperature 59 °F 62 °F 48 °F (1910)
Degree Days  
Heating Degree Days 0 0  
Month to date heating degree days 0  
Since 1 July heating degree days 5  
Cooling Degree Days 6 8  
Month to date cooling degree days 48  
Year to date cooling degree days 535  
Growing Degree Days 22 (Base 50)    
Moisture  
Dew Point 62 °F    
Average Humidity 74    
Maximum Humidity 100    
Minimum Humidity 39    
Precipitation  
Precipitation 0.35 in 0.14 in 1.17 in (1942)
Month to date precipitation 0.86  
Year to date precipitation 20.53  
Snow  
Snow 0.00 in 0.00 in 0.00 in (2002)
Month to date snowfall 0.0  
Since 1 July snowfall 0.0  
Snow Depth -    
Sea Level Pressure  
Sea Level Pressure 29.80 in    
Wind  
Wind Speed 3 mph (SW)    
Max Wind Speed 10 mph    
Max Gust Speed 32 mph    
Visibility 7 miles    
Events Fog , Rain , Thunderstorm    
T = Trace of Precipitation, MM = Missing Value Source: NWS Daily Summary

Daily Weather History Graph

Daily Weather History Graph

Search for Another Location

Airport or City:

Trip Planner

Search our weather history database for the weather conditions in past years. The results will help you decide how hot, cold, wet, or windy it might be!

Date:

Astronomy

Aug. 06, 2013 Rise Set
Actual Time 5:56 AM CDT 8:21 PM CDT
Civil Twilight 5:24 AM CDT 8:53 PM CDT
Nautical Twilight 4:43 AM CDT 9:33 PM CDT
Astronomical Twilight 3:58 AM CDT 10:18 PM CDT
Moon 5:50 AM CDT (8/6) 7:52 PM CDT (8/6)
Length of Visible Light 15h 29m
Length of Day
14h 24m
Waning Crescent, 0% of the Moon is Illuminated
Aug 6
Waning Crescent
Aug 6
New
Aug 14
First Quarter
Aug 20
Full
Aug 28
Last Quarter

Hourly Weather History & Observations

Time (CDT) Temp. Heat Index Dew Point Humidity Pressure Visibility Wind Dir Wind Speed Gust Speed Precip Events Conditions
12:15 AM 64.9 °F - 64.9 °F 100% 29.85 in 10.0 mi Calm Calm - N/A   Overcast
12:35 AM 64.4 °F - 64.4 °F 100% 29.85 in 7.0 mi Calm Calm - N/A   Overcast
12:55 AM 64.2 °F - 64.2 °F 100% 29.85 in 7.0 mi Calm Calm - N/A   Overcast
1:15 AM 63.5 °F - 63.5 °F 100% 29.85 in 3.0 mi Calm Calm - N/A   Mostly Cloudy
1:35 AM 63.0 °F - 63.0 °F 100% 29.84 in 2.5 mi Calm Calm - N/A   Overcast
1:55 AM 62.8 °F - 62.8 °F 100% 29.84 in 1.8 mi Calm Calm - N/A   Overcast
2:15 AM 61.5 °F - 61.5 °F 100% 29.84 in 0.5 mi Calm Calm - N/A Fog Fog
2:35 AM 60.1 °F - 60.1 °F 100% 29.83 in 0.2 mi Calm Calm - N/A Fog Fog
2:55 AM 59.0 °F - 59.0 °F 100% 29.83 in 0.2 mi Calm Calm - N/A Fog Fog
3:15 AM 60.3 °F - 60.3 °F 100% 29.83 in 0.2 mi SSW 3.5 mph - N/A Fog Fog
3:35 AM 61.0 °F - 61.0 °F 100% 29.83 in 1.8 mi Calm Calm - N/A   Overcast
3:55 AM 61.9 °F - 61.9 °F 100% 29.84 in 2.5 mi SSW 3.5 mph - N/A   Overcast
4:15 AM 63.3 °F - 63.3 °F 100% 29.83 in 2.5 mi Calm Calm - N/A   Overcast
4:35 AM 63.5 °F - 63.5 °F 100% 29.81 in 0.8 mi Calm Calm - N/A   Overcast
4:55 AM 63.5 °F - 63.5 °F 100% 29.80 in 0.2 mi Calm Calm - N/A Fog Fog
5:15 AM 64.0 °F - 64.0 °F 100% 29.80 in 0.2 mi South 4.6 mph - N/A Fog Fog
5:35 AM 64.6 °F - 64.6 °F 100% 29.80 in 0.2 mi SSW 3.5 mph - N/A Fog Fog
5:55 AM 64.8 °F - 64.8 °F 100% 29.82 in 0.2 mi Calm Calm - N/A Fog Fog
6:15 AM 65.1 °F - 65.1 °F 100% 29.81 in 0.5 mi Calm Calm - N/A Fog Fog
6:35 AM 65.3 °F - 65.3 °F 100% 29.81 in 0.5 mi Calm Calm - N/A Fog Fog
6:55 AM 65.7 °F - 65.7 °F 100% 29.82 in 1.2 mi Calm Calm - N/A   Overcast
7:15 AM 65.8 °F - 65.8 °F 100% 29.82 in 2.0 mi Calm Calm - N/A   Overcast
7:35 AM 66.4 °F - 66.4 °F 100% 29.83 in 4.0 mi Calm Calm - N/A   Scattered Clouds
7:55 AM 66.9 °F - 66.9 °F 100% 29.83 in 7.0 mi WSW 5.8 mph - N/A   Clear
8:15 AM 68.7 °F - 66.2 °F 92% 29.84 in 10.0 mi SW 5.8 mph - N/A   Clear
8:35 AM 69.6 °F - 65.8 °F 88% 29.84 in 10.0 mi SW 5.8 mph - N/A   Clear
8:55 AM 69.8 °F - 65.3 °F 86% 29.84 in 10.0 mi WSW 4.6 mph - N/A   Clear
9:15 AM 71.1 °F - 63.3 °F 76% 29.84 in 10.0 mi SW 5.8 mph - N/A   Scattered Clouds
9:35 AM 71.8 °F - 62.8 °F 73% 29.84 in 10.0 mi SW 4.6 mph - N/A   Mostly Cloudy
9:55 AM 72.9 °F - 62.1 °F 69% 29.84 in 10.0 mi West 4.6 mph - N/A   Scattered Clouds
10:15 AM 73.6 °F - 61.5 °F 66% 29.85 in 10.0 mi West 6.9 mph - N/A   Scattered Clouds
10:35 AM 73.8 °F - 62.6 °F 68% 29.85 in 10.0 mi WSW 5.8 mph - N/A   Mostly Cloudy
10:55 AM 74.5 °F - 62.6 °F 66% 29.85 in 10.0 mi SW 6.9 mph - N/A   Scattered Clouds
11:15 AM 74.5 °F - 60.4 °F 61% 29.85 in 10.0 mi SW 8.1 mph - N/A   Scattered Clouds
11:35 AM 74.7 °F - 61.3 °F 63% 29.84 in 10.0 mi WSW 8.1 mph - N/A   Clear
11:55 AM 74.8 °F - 60.6 °F 61% 29.84 in 10.0 mi SSW 8.1 mph - N/A   Clear
12:15 PM 76.1 °F - 60.6 °F 59% 29.83 in 10.0 mi West 5.8 mph - N/A   Clear
12:35 PM 76.3 °F - 59.4 °F 56% 29.81 in 10.0 mi West 6.9 mph - N/A   Clear
12:55 PM 78.1 °F - 60.4 °F 54% 29.81 in 10.0 mi West 6.9 mph - N/A   Clear
1:15 PM 79.5 °F - 60.6 °F 52% 29.80 in 10.0 mi SW 10.4 mph - N/A   Scattered Clouds
1:35 PM 80.1 °F 80.9 °F 59.7 °F 50% 29.80 in 10.0 mi WSW 9.2 mph - N/A   Scattered Clouds
1:55 PM 80.1 °F 80.9 °F 59.7 °F 50% 29.80 in 10.0 mi West 6.9 mph - N/A   Scattered Clouds
2:15 PM 81.1 °F 81.5 °F 59.4 °F 47% 29.80 in 10.0 mi WSW 6.9 mph - N/A   Scattered Clouds
2:35 PM 81.5 °F 81.8 °F 59.2 °F 47% 29.80 in 10.0 mi West 5.8 mph 16.1 mph N/A   Clear
2:55 PM 82.0 °F 82.2 °F 59.5 °F 46% 29.80 in 10.0 mi WNW 5.8 mph - N/A   Clear
3:15 PM 82.6 °F 82.8 °F 60.1 °F 46% 29.79 in 10.0 mi South 3.5 mph - N/A   Clear
3:35 PM 83.3 °F 83.2 °F 59.2 °F 44% 29.79 in 10.0 mi SSW 4.6 mph 9.2 mph N/A   Clear
3:55 PM 83.3 °F 82.8 °F 57.6 °F 41% 29.79 in 10.0 mi SW 5.8 mph - N/A   Clear
4:15 PM 84.2 °F 83.8 °F 59.0 °F 42% 29.79 in 10.0 mi SSW 6.9 mph - N/A   Clear
4:35 PM 84.6 °F 83.7 °F 57.4 °F 39% 29.79 in 10.0 mi WSW 6.9 mph - N/A   Clear
4:55 PM 84.0 °F 83.6 °F 58.5 °F 42% 29.78 in 10.0 mi SW 6.9 mph - N/A   Clear
5:15 PM 83.8 °F 83.6 °F 59.0 °F 43% 29.77 in 10.0 mi West 8.1 mph - N/A   Clear
5:35 PM 84.2 °F 84.2 °F 59.9 °F 44% 29.77 in 10.0 mi SSW 3.5 mph - N/A   Clear
5:55 PM 84.4 °F 84.8 °F 61.5 °F 46% 29.76 in 10.0 mi SSW 5.8 mph - N/A   Clear
6:15 PM 84.2 °F 84.8 °F 61.9 °F 47% 29.76 in 10.0 mi SW 6.9 mph - N/A   Scattered Clouds
6:35 PM 81.7 °F 82.7 °F 62.2 °F 52% 29.77 in 10.0 mi SW 6.9 mph - N/A   Mostly Cloudy
6:55 PM 81.5 °F 82.8 °F 63.3 °F 54% 29.76 in 10.0 mi SSW 4.6 mph - N/A   Mostly Cloudy
7:15 PM 81.3 °F 82.7 °F 63.9 °F 55% 29.76 in 10.0 mi SSW 6.9 mph - N/A   Scattered Clouds
7:35 PM 80.1 °F 81.8 °F 64.6 °F 59% 29.75 in 10.0 mi South 4.6 mph - N/A   Scattered Clouds
7:55 PM 79.2 °F - 64.6 °F 61% 29.74 in 10.0 mi South 5.8 mph - N/A   Scattered Clouds
8:15 PM 77.4 °F - 64.4 °F 64% 29.73 in 10.0 mi South 4.6 mph - N/A   Clear
8:35 PM 75.7 °F - 64.6 °F 68% 29.73 in 10.0 mi South 3.5 mph - N/A   Clear
8:55 PM 74.5 °F - 64.9 °F 72% 29.73 in 10.0 mi South 4.6 mph - N/A   Scattered Clouds
9:15 PM 74.5 °F - 64.6 °F 71% 29.73 in 10.0 mi South 5.8 mph - N/A   Clear
9:35 PM 76.1 °F - 64.2 °F 67% 29.73 in 10.0 mi SSW 6.9 mph - N/A   Clear
9:55 PM 76.1 °F - 63.9 °F 66% 29.73 in 10.0 mi SSW 3.5 mph - N/A   Clear
10:15 PM 74.7 °F - 64.6 °F 71% 29.75 in 10.0 mi SW 4.6 mph - N/A   Clear
10:35 PM 74.3 °F - 64.4 °F 71% 29.74 in 10.0 mi SSW 4.6 mph - N/A   Clear
10:55 PM 74.7 °F - 64.4 °F 70% 29.76 in 10.0 mi WSW 5.8 mph - N/A Thunderstorm Scattered Clouds
11:15 PM 61.9 °F - 59.5 °F 92% 29.80 in 0.8 mi NW 3.5 mph 32.2 mph 0.35 in Rain , Thunderstorm Heavy Thunderstorms and Rain
11:55 PM 61.0 °F - 61.0 °F 100% 29.77 in 10.0 mi South 8.1 mph - 0.01 in Thunderstorm Scattered Clouds